, AK

(GMT )
Deadhorse

Weather History for PASC - July, 2013

Change the Weather History Date:

Friday, July 19, 2013

  Actual Average Record
Temperature  
Mean Temperature 52 °F -  
Max Temperature 57 °F 54 °F 79 °F (1990)
Min Temperature 46 °F 38 °F 30 °F (2005)
Degree Days  
Heating Degree Days 14    
Growing Degree Days 2 (Base 50)    
Moisture  
Dew Point 46 °F    
Average Humidity 85    
Maximum Humidity 97    
Minimum Humidity 74    
Precipitation  
Precipitation 0.00 in - - ()
Sea Level Pressure  
Sea Level Pressure 30.07 in    
Wind  
Wind Speed 8 mph (NNE)    
Max Wind Speed 17 mph    
Max Gust Speed -    
Visibility 10 miles    
Events      
Averages and records for this station are not official NWS values.
T = Trace of Precipitation, MM = Missing Value Source: NWS Daily Summary

Daily Weather History Graph

Daily Weather History Graph

Search for Another Location

Airport or City:

Trip Planner

Search our weather history database for the weather conditions in past years. The results will help you decide how hot, cold, wet, or windy it might be!

Date:

Astronomy

Jul. 19, 2013 Rise Set
Actual Time 2:32 AM AKDT 1:27 AM AKDT
Civil Twilight Sun does not set Sun does not set
Nautical Twilight Sun does not set Sun does not set
Astronomical Twilight Sun does not set Sun does not set
Moon No Moon Rise No Moon Set
Length of Visible Light 24h 00m
Length of Day
22h 55m
Waxing Gibbous, 88% of the Moon is Illuminated
Jul 19
Waxing Gibbous
Jul 22
Full
Jul 29
Last Quarter
Aug 6
New
Aug 14
First Quarter

Hourly Weather History & Observations

Time (AKDT) Temp. Dew Point Humidity Pressure Visibility Wind Dir Wind Speed Gust Speed Precip Events Conditions
12:53 AM 48.9 °F 46.9 °F 93% 30.03 in 10.0 mi East 5.8 mph - N/A   Mostly Cloudy
1:53 AM 48.0 °F 46.0 °F 93% 30.03 in 10.0 mi East 6.9 mph - N/A   Mostly Cloudy
2:53 AM 46.9 °F 46.0 °F 97% 30.03 in 10.0 mi SE 4.6 mph - N/A   Mostly Cloudy
3:53 AM 46.9 °F 46.0 °F 97% 30.02 in 10.0 mi East 4.6 mph - N/A   Scattered Clouds
4:53 AM 48.0 °F 46.9 °F 96% 30.03 in 10.0 mi East 4.6 mph - N/A   Mostly Cloudy
5:53 AM 51.1 °F 48.9 °F 92% 30.03 in 10.0 mi East 3.5 mph - N/A   Mostly Cloudy
6:53 AM 54.0 °F 51.1 °F 90% 30.03 in 10.0 mi Calm Calm - N/A   Mostly Cloudy
7:53 AM 57.9 °F 52.0 °F 81% 30.04 in 10.0 mi WNW 8.1 mph - N/A   Mostly Cloudy
8:49 AM 51.8 °F 46.4 °F 82% 30.04 in 10.0 mi NW 12.7 mph - N/A   Overcast
8:53 AM 52.0 °F 46.9 °F 83% 30.05 in 10.0 mi NW 11.5 mph - N/A   Overcast
9:53 AM 51.1 °F 44.1 °F 77% 30.06 in 10.0 mi NNW 11.5 mph - N/A   Overcast
10:53 AM 51.1 °F 46.0 °F 83% 30.08 in 10.0 mi NNW 13.8 mph - N/A   Overcast
11:06 AM 50.0 °F 46.4 °F 87% 30.07 in 10.0 mi NNW 17.3 mph - N/A   Overcast
11:53 AM 51.1 °F 45.0 °F 80% 30.09 in 10.0 mi NNW 13.8 mph - N/A   Overcast
11:59 AM 51.8 °F 44.6 °F 76% 30.08 in 10.0 mi North 13.8 mph - N/A   Overcast
12:53 PM 52.0 °F 45.0 °F 77% 30.09 in 10.0 mi North 11.5 mph - N/A   Overcast
1:09 PM 51.8 °F 44.6 °F 76% 30.09 in 10.0 mi NNW 10.4 mph - N/A   Overcast
1:53 PM 53.1 °F 45.0 °F 74% 30.09 in 10.0 mi North 10.4 mph - N/A   Overcast
2:53 PM 53.1 °F 46.0 °F 77% 30.09 in 10.0 mi NNW 11.5 mph - N/A   Mostly Cloudy
3:53 PM 53.1 °F 46.0 °F 77% 30.09 in 10.0 mi North 10.4 mph - N/A   Scattered Clouds
4:53 PM 50.0 °F 45.0 °F 83% 30.09 in 10.0 mi NNE 8.1 mph - N/A   Mostly Cloudy
5:53 PM 48.0 °F 44.1 °F 86% 30.09 in 10.0 mi NNE 10.4 mph - N/A   Mostly Cloudy
6:53 PM 50.0 °F 44.1 °F 80% 30.09 in 10.0 mi NNE 10.4 mph - N/A   Partly Cloudy
7:27 PM 50.0 °F 44.6 °F 82% 30.09 in 10.0 mi NNE 8.1 mph - N/A   Mostly Cloudy
7:53 PM 48.9 °F 44.1 °F 83% 30.09 in 10.0 mi NE 9.2 mph - N/A   Partly Cloudy
8:48 PM 50.0 °F 44.6 °F 82% 30.08 in 10.0 mi NE 9.2 mph - N/A   Mostly Cloudy
8:53 PM 48.9 °F 45.0 °F 86% 30.08 in 10.0 mi ENE 10.4 mph - N/A   Mostly Cloudy
9:53 PM 48.0 °F 45.0 °F 89% 30.08 in 10.0 mi East 9.2 mph - N/A   Overcast
10:06 PM 48.2 °F 44.6 °F 87% 30.08 in 10.0 mi ENE 9.2 mph - N/A   Overcast
10:53 PM 48.0 °F 45.0 °F 89% 30.08 in 10.0 mi ENE 9.2 mph - N/A   Overcast
11:32 PM 48.2 °F 44.6 °F 87% 30.08 in 10.0 mi ENE 10.4 mph - N/A   Overcast
11:53 PM 48.0 °F 45.0 °F 89% 30.08 in 10.0 mi NE 10.4 mph - N/A   Overcast